Location: Gebenbach
(49.5378°N, 11.8735°E)
Time: 03:44:13
(UTC+00:00)

FALCON 9 DEB - Pass Details

Date: 29 October 2020
Orbit: 379 x 394 km, 53.0° (Epoch: 23 November)

Event Time Altitude Azimuth Distance (km) Brightness Sun altitude
Rises 18:01:48 0° 267° (W) 2,294 8.3 -21.1°
Reaches altitude 10° 18:03:55 10° 273° (W) 1,435 6.9 -21.4°
Enters shadow 18:06:35 44° 319° (NW) 556 3.9 -21.8°
